Content
SEND FEEDBACK

Daily
Averages
Monthly
Summary
United States of America

AGAT, GUAM


Home > North America > United States > Guam
Elevation: 110 meters     Latitude: 13 33N     Longitude: 144 50E

WEATHER
 
SELECT A DAY
Number of Records: 209,379;   Date Range: 1/1/95 - 9/21/14
 
SHARE

PRINT THIS DATA

[ ← Previous Day ]
WEATHER ALMANAC - 24 JANUARY, 2013
[ Next Day → ]
[ °F ]   °C
Weather ElementAverageHighLow
Temperature25.6 °C29.4 °C (3:54 pm)22.2 °C (1:54 am)
Dewpoint19.2 °C20 °C (1:54 am)17.8 °C (5:54 pm)
Humidity68.8 %87 % (1:54 am)53 % (11:54 am)
Barometer1012.2 hPa1013.9 hPa (8:54 am)1010.2 hPa (2:54 pm)
Wind Speed11.6 km/h18.5 km/h (1:54 pm)
Weather ElementAverage
Visibility16.1 km
Wind DirectionENE (52.6 °)

Weather ElementTotal
Precipitation---
Cooling Degree Days7.5 (Base 18.3)
Growing Degree Days15.8 (Base 10)
Averaged from 23 records on 24 January, 2013
WEATHER CONDITIONS BREAKOUT
WIND DIRECTION BREAKOUT
WEATHER BY HOUR - 24 JANUARY, 2013
[ °F ]   °C
Local TimeTemperatureDewpointHumidityBarometerVisibilityWind DirectionWind SpeedGust SpeedPrecipitationEventsConditions
1:54 AM22.2 °C20 °C87 %1012.5 hPa16.1 kmNE (40°)7.4 km/hClear
2:54 AM24.4 °C20 °C76 %1011.9 hPa16.1 kmENE (60°)11.1 km/hClear
3:54 AM23.3 °C20 °C82 %1011.9 hPa16.1 kmENE (60°)7.4 km/hClear
4:54 AM22.8 °C20 °C84 %1012.2 hPa16.1 kmNE (40°)9.3 km/hClear
5:54 AM22.8 °C20 °C84 %1012.5 hPa16.1 kmENE (60°)9.3 km/hClear
6:54 AM22.2 °C20 °C87 %1012.9 hPa16.1 kmENE (60°)7.4 km/hClear
7:54 AM24.4 °C20 °C76 %1013.5 hPa16.1 kmENE (60°)13 km/hPartly Cloudy
8:54 AM26.7 °C20 °C67 %1013.9 hPa16.1 kmENE (60°)11.1 km/hClear
9:54 AM28.3 °C19.4 °C58 %1013.9 hPa16.1 kmENE (60°)16.7 km/hPartly Cloudy
10:54 AM28.3 °C18.9 °C56 %1013.5 hPa16.1 kmENE (70°)11.1 km/hClear
11:54 AM28.9 °C18.3 °C53 %1012.9 hPa16.1 kmNE (50°)14.8 km/hPartly Cloudy
12:54 PM28.9 °C18.9 °C55 %1011.9 hPa16.1 kmENE (60°)16.7 km/hScattered Clouds
1:54 PM27.8 °C19.4 °C60 %1011.2 hPa16.1 kmENE (70°)18.5 km/hScattered Clouds
2:54 PM28.3 °C19.4 °C58 %1010.2 hPa16.1 kmENE (60°)18.5 km/hScattered Clouds
3:54 PM29.4 °C18.9 °C53 %1010.2 hPa16.1 kmNorth (10°)11.1 km/hScattered Clouds
4:54 PM28.3 °C18.3 °C54 %1010.8 hPa16.1 kmNE (40°)14.8 km/hPartly Cloudy
5:54 PM26.7 °C17.8 °C58 %1010.8 hPa16.1 kmNE (40°)18.5 km/hClear
6:54 PM25.6 °C18.9 °C66 %1011.2 hPa16.1 kmNE (50°)7.4 km/hClear
7:54 PM24.4 °C18.9 °C71 %1011.5 hPa16.1 kmENE (60°)9.3 km/hPartly Cloudy
8:54 PM24.4 °C18.3 °C69 %1012.2 hPa16.1 kmENE (60°)11.1 km/hPartly Cloudy
9:54 PM23.3 °C18.9 °C76 %1012.5 hPa16.1 kmNE (40°)9.3 km/hPartly Cloudy
10:54 PM23.3 °C18.9 °C76 %1012.9 hPa16.1 kmNE (50°)7.4 km/hPartly Cloudy
11:54 PM23.9 °C19.4 °C76 %1012.9 hPa16.1 kmNE (50°)5.6 km/hScattered Clouds
Hourly data recorded from PGUM, located 0 kilometers away from Agat, Guam







STORIES FROM OUR PARTNERS